Home   Weather   Plymouth   Past weeks

Flag for United Kingdom Past Weather in Plymouth, England, United Kingdom — Yesterday and Last 2 Weeks

Now
48 °F

Passing clouds.


Feels Like: 41 °F
Forecast: 44 / 54 °F
Wind: 21 mph from East

Location: Culdrose

Current Time: Dec 5, 2016 at 2:31:07 am

Latest Report: Dec 5, 2016 at 1:50 am


Visibility: N/A

Pressure: 30.04 "Hg

Humidity: 94%

Dew Point: 46 °F

Location of PlymouthLocation

Past Weather in Plymouth — Graph

°F

Plymouth Temperature Yesterday

Maximum temperature yesterday: 50 °F (at 9:50 pm)
Minimum temperature yesterday: 45 °F (at 12:50 am)
Average temperature yesterday: 47 °F

High & Low Weather Summary for the Past Weeks

 TemperatureHumidityPressure
High55 °F (Nov 24, 11:50 am)100% (Nov 21, 4:50 am)30.54 "Hg (Nov 21, 4:50 am)
Low34 °F (Nov 29, 10:50 pm)57% (Nov 28, 5:50 pm)28.82 "Hg (Nov 20, 12:50 am)
Average45 °F85%30.01 "Hg
* Reported Nov 20 12:50 am — Dec 5 12:50 am, Plymouth, Weather by CustomWeather, © 2016

Note: Actual official high and low records may vary slightly from our data, if they occured in-between our weather recording intervals... More about our weather records

Advertising

Plymouth Weather History for the Previous 24 Hours

Scroll right to see more
 ConditionsComfort  
Time TempWeatherWind HumidityBarometerVisibility
12:50 am
Mon, Dec 5
48 °FOvercast.23 mph87%30.04 "HgN/A
11:50 pm
Sun, Dec 4
50 °FOvercast.22 mph88%30.04 "HgN/A
10:50 pm50 °FOvercast.20 mph88%30.07 "HgN/A
9:50 pm50 °FOvercast.23 mph88%30.04 "HgN/A
8:50 pm48 °FOvercast.25 mph87%30.04 "HgN/A
7:50 pm48 °FPassing clouds.25 mph87%30.04 "HgN/A
6:50 pm48 °FPartly cloudy.24 mph82%30.04 "HgN/A
5:50 pm46 °FPassing clouds.29 mph87%30.04 "HgN/A
4:50 pm46 °FPassing clouds.32 mph82%30.01 "HgN/A
3:50 pm46 °FBroken clouds.33 mph82%30.01 "HgN/A
2:50 pm48 °FBroken clouds.26 mph82%30.01 "HgN/A
1:50 pm48 °FBroken clouds.28 mph76%30.01 "HgN/A
12:50 pm48 °FPartly sunny.32 mph76%30.01 "HgN/A
11:50 am48 °FPartly sunny.31 mph76%30.04 "HgN/A
10:50 am46 °FPartly sunny.35 mph82%30.04 "HgN/A
9:50 am46 °FOvercast.32 mph82%30.04 "HgN/A
8:50 am46 °FPartly sunny.31 mph76%30.04 "HgN/A
7:50 am45 °FPassing clouds.31 mph81%30.01 "HgN/A
6:50 am45 °FPassing clouds.36 mph76%30.01 "HgN/A
5:50 am46 °FPassing clouds.35 mph76%30.01 "HgN/A
4:50 am46 °FPassing clouds.33 mph76%30.01 "HgN/A
3:50 am46 °FPassing clouds.29 mph76%30.01 "HgN/A
2:50 am45 °FPassing clouds.26 mph81%30.04 "HgN/A
Weather by CustomWeather, © 2016

See weather overviewHow to use our weather pages